Weather Roundup
Issued by NWS Corpus Christi, TX

Home | Current Version | Previous Version | Text Only | Print | Product List | Glossary On
Versions: 1 2 3 4 5 6 7 8 9 10 11 12 13 14 15 16 17 18 19 20 21 22 23 24 25 26 27 28 29 30 31 32 33 34 35 36 37 38 39 40 41 42 43 44 45 46 47 48 49 50
591
ASUS44 KCRP 110110
HRRCRP

SOUTH TEXAS REGIONAL WEATHER ROUNDUP
NATIONAL WEATHER SERVICE CORPUS CHRISTI TX
700 PM CST WED FEB 10 2016


TXZ229>244-110200-
...CORPUS CHRISTI AREA OBSERVATIONS...

CITY           SKY/WX    TMP DP  RH WIND       PRES   REMARKS
CORPUS CHRISTI PTCLDY    62  47  57 SE12      30.26S
NAS CORPUS CHR CLEAR     61  55  81 S14       30.27F
ROCKPORT       CLEAR     62  51  67 S7        30.26F
KINGSVILLE NAS PTCLDY    61  50  67 SE9       30.26S
ALICE            N/A     64  41  42 SE13      30.24S
FALFURRIAS     CLEAR     67  39  36 SE7       30.25R
$$

...VICTORIA AREA OBSERVATIONS...

CITY           SKY/WX    TMP DP  RH WIND       PRES   REMARKS
VICTORIA       CLEAR     57  48  72 S9        30.26S
BEEVILLE       FAIR      64  46  51 SE8       30.25S
PLEASANTON     CLEAR     62  31  31 CALM      30.23S
SAN ANTONIO    CLEAR     69  28  21 SW6       30.22F
$$

...LAREDO AREA OBSERVATIONS...

CITY           SKY/WX    TMP DP  RH WIND       PRES   REMARKS
LAREDO         CLEAR     66  28  24 SE7       30.23S
COTULLA        CLEAR     70  28  21 S3        30.23R
DEL RIO        CLEAR     71  26  18 E7        30.20S
MCALLEN        CLEAR     71  29  21 SE15      30.27R
HEBBRONVILLE   NOT AVBL
$$

...OTHER TEXAS OBSERVATIONS...

CITY           SKY/WX    TMP DP  RH WIND       PRES   REMARKS
BROWNSVILLE    CLEAR     61  43  51 S9        30.31R
HOUSTON        CLEAR     61  38  42 S9        30.24F
COL. STATION   CLEAR     62  36  37 S6        30.20F
AUSTIN         CLEAR     58  34  40 S7        30.20S
WACO           CLEAR     58  38  47 S12       30.13F
FORT WORTH     CLEAR     62  30  29 S9        30.06F
WICHITA FALLS  CLEAR     64  27  24 SW12      30.00S
LUBBOCK        CLEAR     61  18  18 SW9       30.12R
EL PASO        CLEAR     65  14  14 CALM      30.24F
$$

...MARINE OBSERVATIONS...

STATION/POSITION TIME  SKY/WX   TEMP    WIND        PRES    VSBY  WAVE   SWELL
                                AIR SEA DIR/SP/G                  HT/PER HT/PER
                 (UTC)          (F)     (DEG/KT/KT) (MB)    (MI)  (FT/S) (FT/S)
PORT ARANSAS     0000            62 61  140/ 12/ 13 1026.0F
BUOY 90 E PORT A 2350            65 69  180/ 12/ 16 1026.1          2/ 5
BUOY 45 SE BAFFI 2350            66 65  180/ 14/ 16 1025.6          1/ 3
BUOY 200 E PT IS 2350                                 N/A           3/ 6   2/ 6
BUOY 15 E GALVES 2350            58 58  200/ 12/ 14 1025.9          1/ 2
$$




USA.gov is the U.S. government's official web portal to all federal, state and local government web resources and services.